Regional Weather Roundup
Issued by NWS Tiyan, Guam

Home | Current Version | Previous Version | Text Only | Print | Product List | Glossary On
Versions: 1 2 3 4 5 6 7 8 9 10 11 12 13 14 15 16 17 18 19 20 21 22 23 24 25 26 27 28 29 30 31 32 33 34 35 36 37 38 39 40 41 42 43 44 45 46 47 48 49 50
000
ASGM40 PGUM 050210
RWRGUM
WEATHER ROUNDUP FOR THE MARIANAS
NATIONAL WEATHER SERVICE TIYAN GU
1200 PM CHST SAT SEP 05 2015

GUZ001>004-050300-
MARIANA ISLANDS-

CITY           SKY/WX    TMP DP  RH WIND       PRES   REMARKS
GUAM AIRPORT   MOSUNNY   88  75  66 SW14G24   29.81F HX  97
ANDERSEN AFB   MOSUNNY   88  75  66 SW18G25   29.81F HX  97
ROTA AIRPORT   MOSUNNY   84  77  79 SW10G20   29.80F HX  94
TINIAN AP      MOSUNNY   86  77  74 SW8       29.77F HX  97
SAIPAN AP      MOSUNNY   86  81  84 S8        29.78F HX 102

$$




USA.gov is the U.S. government's official web portal to all federal, state and local government web resources and services.